AP586 Weather Reports


time (UTC)temp
C
wind
direction
speed
KPH
gust
KPH
rain 1hr
cm
rain 24hr
cm
rain mn
cm
humidity
%
barometer
mb
20260505041548 12 182 9.7 22.5 0.00 0.00 0.00 68 1008.0
20260505040056 12 216 8.0 17.7 0.00 0.00 0.00 66 1008.0
20260505034544 12 190 8.0 22.5 0.00 0.00 0.00 65 1007.9
20260505033040 13 205 8.0 20.9 0.00 0.00 0.00 64 1007.8
20260505031549 13 216 8.0 20.9 0.00 0.00 0.00 62 1007.8
20260505030043 13 191 9.7 22.5 0.00 0.00 0.00 60 1007.9
20260505024540 13 189 8.0 20.9 0.00 0.00 0.00 59 1007.9
20260505023038 13 234 8.0 22.5 0.00 0.00 0.00 57 1007.9
20260505021538 14 200 11.3 25.7 0.00 0.00 0.00 56 1007.9
20260505020041 14 202 8.0 20.9 0.00 0.00 0.00 54 1007.9
20260505014541 15 242 6.4 24.1 0.00 0.00 0.00 53 1007.8
20260505013035 15 210 8.0 19.3 0.00 0.00 0.00 51 1007.7
20260505011538 15 216 11.3 33.8 0.00 0.00 0.00 51 1007.3
20260505010034 15 239 8.0 24.1 0.00 0.00 0.00 51 1007.2
20260505004533 15 182 6.4 24.1 0.00 0.00 0.00 51 1006.9
20260505003032 16 196 8.0 27.4 0.00 0.00 0.00 49 1006.6
20260505001532 16 175 14.5 24.1 0.00 0.00 0.00 47 1006.1
20260505000045 17 211 11.3 45.1 0.00 0.00 0.00 43 1005.8
20260504234532 17 126 9.7 30.6 0.00 0.00 0.00 43 1005.6
20260504233029 18 213 14.5 29.0 0.00 0.00 0.00 42 1005.3
20260504231529 18 175 11.3 33.8 0.00 0.00 0.00 42 1005.0
20260504230029 18 188 22.5 41.8 0.00 0.00 0.00 40 1004.6
20260504224528 19 159 8.0 33.8 0.00 0.00 0.00 39 1004.4
20260504223029 19 176 12.9 43.5 0.00 0.00 0.00 38 1004.3
20260504221528 20 190 16.1 38.6 0.00 0.00 0.00 35 1004.2
20260504220040 21 146 17.7 46.7 0.00 0.00 0.00 33 1004.0
20260504214524 22 167 11.3 38.6 0.00 0.00 0.00 30 1004.1
20260504213021 22 253 6.4 32.2 0.00 0.00 0.00 28 1004.0
20260504211520 22 200 9.7 27.4 0.00 0.00 0.00 27 1004.0
20260504210018 23 240 8.0 27.4 0.00 0.00 0.00 27 1003.9
20260504204521 23 104 9.7 25.7 0.00 0.00 0.00 26 1004.0
20260504203013 23 244 8.0 22.5 0.00 0.00 0.00 26 1004.0
20260504201510 22 169 12.9 35.4 0.00 0.00 0.00 26 1004.3
20260504200009 22 298 22.5 49.9 0.00 0.03 0.00 26 1004.3
20260504194507 22 206 14.5 38.6 0.00 0.03 0.00 25 1004.3
20260504193005 22 243 14.5 35.4 0.00 0.03 0.00 25 1004.3
20260504191504 22 205 14.5 54.7 0.00 0.03 0.00 25 1004.3
20260504190109 22 167 9.7 35.4 0.00 0.03 0.00 25 1004.4
20260504184558 22 65 6.4 30.6 0.00 0.03 0.00 25 1004.4
20260504183101 22 293 11.3 35.4 0.00 0.03 0.00 26 1004.6
20260504181552 22 198 17.7 37.0 0.00 0.03 0.00 26 1004.8
20260504180130 21 153 14.5 30.6 0.00 0.03 0.00 27 1004.8
20260504174547 21 177 11.3 35.4 0.00 0.03 0.00 28 1005.0
20260504173046 21 182 12.9 35.4 0.00 0.03 0.00 29 1005.0
20260504171545 21 196 9.7 37.0 0.00 0.03 0.00 29 1005.0
20260504081506 8 198 3.2 8.0 0.00 0.03 0.00 53 1008.1